Weather History for KISP - February, 2012

Change the Weather History Date:

Wednesday, February 1, 2012

  Actual Average Record
Temperature  
Mean Temperature 54 °F 31 °F  
Max Temperature 63 °F 38 °F 63 °F (2012)
Min Temperature 45 °F 24 °F 6 °F (2004)
Degree Days  
Heating Degree Days 11 34  
Month to date heating degree days 11 34  
Since 1 July heating degree days 2378 3026  
Cooling Degree Days 0 0  
Month to date cooling degree days 0 0  
Year to date cooling degree days 0 0  
Growing Degree Days 4 (Base 50)    
Moisture  
Dew Point 38 °F    
Average Humidity 59    
Maximum Humidity 71    
Minimum Humidity 46    
Precipitation  
Precipitation 0.04 in 0.11 in 1.72 in (2008)
Month to date precipitation 0.04 0.11  
Year to date precipitation 2.70 3.75  
Snow  
Snow 0.00 in 0.30 in 0.60 in (2011)
Month to date snowfall 0.0 0.3  
Since 1 July snowfall 4.1 12.9  
Snow Depth 0.00 in    
Sea Level Pressure  
Sea Level Pressure 29.93 in    
Wind  
Wind Speed 11 mph (WSW)    
Max Wind Speed 23 mph    
Max Gust Speed 31 mph    
Visibility 10 miles    
Events Rain    
T = Trace of Precipitation, MM = Missing Value Source: NWS Daily Summary

Daily Weather History Graph

Daily Weather History Graph

Search for Another Location

Airport or City:

Trip Planner

Search our weather history database for the weather conditions in past years. The results will help you decide how hot, cold, wet, or windy it might be!

Date:

Astronomy

Feb. 01, 2012 Rise Set
Actual Time 7:03 AM EST 5:09 PM EST
Civil Twilight 6:34 AM EST 5:38 PM EST
Nautical Twilight 6:01 AM EST 6:11 PM EST
Astronomical Twilight 5:29 AM EST 6:43 PM EST
Moon 11:34 AM EST (2/1) 1:46 AM EST (2/1)
Length of Visible Light 11h 04m
Length of Day
10h 06m
Waxing Gibbous, 64% of the Moon is Illuminated
Feb 1
Waxing Gibbous
Feb 7
Full
Feb 14
Last Quarter
Feb 21
New
Feb 29
First Quarter

Hourly Weather History & Observations

Time (EST) Temp. Windchill Dew Point Humidity Pressure Visibility Wind Dir Wind Speed Gust Speed Precip Events Conditions
12:56 AM 48.9 °F - 34.0 °F 56% 30.01 in 10.0 mi SW 11.5 mph - N/A   Scattered Clouds
1:56 AM 48.0 °F - 35.1 °F 61% 29.99 in 10.0 mi SW 9.2 mph - N/A   Scattered Clouds
2:56 AM 46.4 °F 41.9 °F 35.6 °F 66% 29.97 in 10.0 mi SW 9.2 mph - N/A   Mostly Cloudy
3:56 AM 48.9 °F - 36.0 °F 61% 29.95 in 10.0 mi SW 11.5 mph - N/A   Overcast
4:56 AM 48.9 °F - 36.0 °F 61% 29.94 in 10.0 mi SW 9.2 mph - N/A   Overcast
5:56 AM 48.2 °F - 37.4 °F 66% 29.93 in 10.0 mi SW 8.1 mph - N/A   Overcast
6:56 AM 48.0 °F - 37.9 °F 68% 29.94 in 10.0 mi SW 8.1 mph - 0.01 in   Overcast
7:56 AM 48.0 °F - 41.0 °F 77% 29.95 in 9.0 mi WSW 11.5 mph - 0.03 in Rain Light Rain
8:56 AM 48.9 °F - 42.1 °F 77% 29.95 in 10.0 mi SW 11.5 mph - 0.00 in   Overcast
9:56 AM 51.1 °F - 42.1 °F 71% 29.92 in 10.0 mi SW 11.5 mph - N/A   Overcast
10:56 AM 54.0 °F - 39.9 °F 59% 29.91 in 10.0 mi WSW 12.7 mph - N/A   Mostly Cloudy
11:56 AM 57.9 °F - 37.9 °F 47% 29.89 in 10.0 mi WSW 18.4 mph 25.3 mph N/A   Mostly Cloudy
12:56 PM 61.0 °F - 39.9 °F 46% 29.86 in 10.0 mi West 13.8 mph - N/A   Mostly Cloudy
1:56 PM 60.1 °F - 41.0 °F 49% 29.85 in 10.0 mi SSW 11.5 mph - N/A   Scattered Clouds
2:56 PM 62.1 °F - 41.0 °F 46% 29.85 in 10.0 mi West 15.0 mph 24.2 mph N/A   Scattered Clouds
3:56 PM 61.0 °F - 39.9 °F 46% 29.87 in 10.0 mi West 17.3 mph 27.6 mph N/A   Scattered Clouds
4:56 PM 60.1 °F - 39.0 °F 46% 29.88 in 10.0 mi West 12.7 mph 21.9 mph N/A   Scattered Clouds
5:56 PM 55.9 °F - 39.0 °F 53% 29.91 in 10.0 mi West 6.9 mph - N/A   Scattered Clouds
6:56 PM 52.0 °F - 39.0 °F 61% 29.93 in 10.0 mi WSW 10.4 mph - N/A   Scattered Clouds
7:56 PM 50.0 °F - 37.9 °F 63% 29.94 in 10.0 mi WSW 8.1 mph - N/A   Scattered Clouds
8:56 PM 51.1 °F - 37.0 °F 59% 29.95 in 10.0 mi WSW 6.9 mph - N/A   Scattered Clouds
9:56 PM 46.9 °F - 37.0 °F 68% 29.95 in 10.0 mi WSW 6.9 mph - N/A   Mostly Cloudy
10:56 PM 48.0 °F - 36.0 °F 63% 29.97 in 10.0 mi Calm Calm - N/A   Mostly Cloudy
11:56 PM 50.0 °F - 36.0 °F 59% 29.99 in 10.0 mi NNW 10.4 mph - N/A   Mostly Cloudy